User: anonymous   Login
Location: Arcones
(41.1182°N, 3.7238°W)
Time: 14:55:12
(UTC+00:00)
Language:

Cosmos 1244 Rocket - Orbit

View from above orbital plane
View from above orbital plane
View from above satellite
View from above satellite

Ground track
Ground track

The orbit is defined by the following mean orbital elements,

1 12298U          26041.88484602 +.00000000 +00000-0 +54191-4 0 00002
2 12298  82.9520 142.7701 0030520  48.8050  81.4426 13.76929659    09
Epoch (UTC): 10 February 2026 21:14:10
Eccentricity: 0.0030520
inclination: 82.9520°
perigee height: 952 km
apogee height: 997 km
right ascension of ascending node: 142.7701°
argument of perigee: 48.8050°
revolutions per day: 13.76929659
mean anomaly at epoch: 81.4426°

The dashed part of the orbit path shows where the satellite is in the earth's shadow,  

DLR